Location: Unspecified
(41.1637°N, 24.2901°E)
Time: 14:14:13
(UTC+01:00)

ARIANE 6 FM1 Upper Stage - Pass Details

Date: 25 January 2026
Orbit: 522 x 609 km, 62.0° (Epoch: 11 February)

Event Time Altitude Azimuth Distance (km) Brightness Sun altitude
Rises 16:53:38 0° 205° (SSW) 2,722 6.9 -4.8°
Reaches altitude 10° 16:55:53 10° 201° (SSW) 1,817 5.9 -5.2°
Maximum altitude 16:59:53 56° 123° (ESE) 647 2.8 -5.9°
Drops below altitude 10° 17:03:48 10° 45° (NE) 1,786 4.7 -6.6°
Enters shadow 17:04:41 - 43° (NE) 2,139 5.1 -6.8°
